Terminal Aerodrome Forecast
Issued by NWS Atlanta, GA

Home | Current Version | Previous Version | Text Only | Print | Product List | Glossary On
Versions: 1 2 3 4 5 6 7 8 9 10 11 12 13 14 15 16 17 18 19 20 21 22 23 24 25 26 27 28 29 30 31 32 33 34
000
FTAK31 PAJN 231600 AAA
TAFAHN
TAF AMD
PAHN 231605Z 2316/2412 VRB04KT P6SM VCSH OVC012
      TEMPO 2316/2320 6SM -SHRA OVC008
     FM232000 12006KT 6SM -SHRA SCT015 OVC025
     FM240600 VRB04KT P6SM VCSH OVC030
      AMD LTD TO CLD VIS AND WIND=

USA.gov is the U.S. government's official web portal to all federal, state and local government web resources and services.